Paducah, KY

9:22 AM CDT on March 30, 2017 (GMT -0500)
Barkley Regional

Weather History for KPAH - October, 2011

Change the Weather History Date:

Saturday, October 1, 2011

  Actual Average Record
Temperature  
Mean Temperature 53 °F 64 °F  
Max Temperature 65 °F 76 °F 93 °F (1953)
Min Temperature 41 °F 51 °F 35 °F (1984)
Degree Days  
Heating Degree Days 12 4  
Month to date heating degree days 12 4  
Since 1 July heating degree days 48 43  
Cooling Degree Days 0 3  
Month to date cooling degree days 0 3  
Year to date cooling degree days 1683 1503  
Growing Degree Days 3 (Base 50)    
Moisture  
Dew Point 39 °F    
Average Humidity 64    
Maximum Humidity 89    
Minimum Humidity 39    
Precipitation  
Precipitation 0.00 in 0.13 in 1.79 in (1988)
Month to date precipitation 0.00 0.13  
Year to date precipitation 56.10 36.36  
Snow  
Snow 0.00 in 0.00 in 0.00 in (2002)
Month to date snowfall 0.0 0.0  
Since 1 July snowfall 0.0 0.0  
Since 1 September snowfall 0.0 0.0  
Snow Depth 0.00 in    
Sea Level Pressure  
Sea Level Pressure 30.19 in    
Wind  
Wind Speed 7 mph (North)    
Max Wind Speed 18 mph    
Max Gust Speed 24 mph    
Visibility 10 miles    
Events      
T = Trace of Precipitation, MM = Missing Value Source: NWS Daily Summary

Daily Weather History Graph

Daily Weather History Graph

Search for Another Location

Airport or City:

Trip Planner

Search our weather history database for the weather conditions in past years. The results will help you decide how hot, cold, wet, or windy it might be!

Date:

Astronomy

Oct. 01, 2011 Rise Set
Actual Time 6:50 AM CDT 6:38 PM CDT
Civil Twilight 6:24 AM CDT 7:04 PM CDT
Nautical Twilight 5:54 AM CDT 7:34 PM CDT
Astronomical Twilight 5:23 AM CDT 8:05 PM CDT
Moon 11:48 AM CDT (10/1) 9:44 PM CDT (10/1)
Length of Visible Light 12h 40m
Length of Day
11h 48m
Waxing Crescent, 24% of the Moon is Illuminated
Oct 1
Waxing Crescent
Oct 3
First Quarter
Oct 11
Full
Oct 19
Last Quarter
Oct 26
New

Hourly Weather History & Observations

Time (CDT) Temp. Windchill Dew Point Humidity Pressure Visibility Wind Dir Wind Speed Gust Speed Precip Events Conditions
12:53 AM 53.1 °F - 39.9 °F 61% 30.07 in 10.0 mi North 3.5 mph - N/A   Clear
1:53 AM 51.1 °F - 39.9 °F 66% 30.10 in 10.0 mi NNE 5.8 mph - N/A   Scattered Clouds
2:53 AM 48.9 °F - 39.9 °F 71% 30.11 in 10.0 mi NNE 5.8 mph - N/A   Clear
3:53 AM 48.2 °F - 39.2 °F 71% 30.12 in 10.0 mi North 5.8 mph - N/A   Clear
4:53 AM 46.9 °F - 39.0 °F 74% 30.15 in 10.0 mi NNE 5.8 mph - N/A   Clear
5:53 AM 45.0 °F 42.6 °F 39.0 °F 80% 30.17 in 10.0 mi NNE 4.6 mph - N/A   Clear
6:53 AM 44.6 °F 41.4 °F 37.4 °F 76% 30.20 in 10.0 mi North 5.8 mph - N/A   Clear
7:53 AM 48.9 °F - 41.0 °F 74% 30.22 in 10.0 mi North 6.9 mph - N/A   Clear
8:53 AM 52.0 °F - 42.1 °F 69% 30.24 in 10.0 mi NNE 9.2 mph - N/A   Clear
9:53 AM 55.0 °F - 41.0 °F 59% 30.25 in 10.0 mi North 11.5 mph - N/A   Clear
10:53 AM 57.0 °F - 39.0 °F 51% 30.26 in 10.0 mi North 12.7 mph 23.0 mph N/A   Clear
11:53 AM 59.0 °F - 39.0 °F 48% 30.25 in 10.0 mi North 12.7 mph - N/A   Partly Cloudy
12:53 PM 62.1 °F - 39.0 °F 43% 30.23 in 10.0 mi North 13.8 mph - N/A   Clear
1:53 PM 63.0 °F - 39.0 °F 41% 30.21 in 10.0 mi Variable 6.9 mph 20.7 mph N/A   Clear
2:53 PM 64.4 °F - 39.2 °F 40% 30.20 in 10.0 mi North 10.4 mph 17.3 mph N/A   Clear
3:53 PM 64.0 °F - 39.9 °F 41% 30.20 in 10.0 mi NNW 8.1 mph - N/A   Clear
4:53 PM 63.0 °F - 37.0 °F 38% 30.20 in 10.0 mi NNW 12.7 mph - N/A   Clear
5:53 PM 61.0 °F - 36.0 °F 39% 30.20 in 10.0 mi North 11.5 mph - N/A   Clear
6:53 PM 55.9 °F - 37.9 °F 51% 30.20 in 10.0 mi North 4.6 mph - N/A   Clear
7:53 PM 51.8 °F - 39.2 °F 62% 30.20 in 10.0 mi Calm Calm - N/A   Clear
8:53 PM 45.0 °F 43.5 °F 39.9 °F 82% 30.22 in 10.0 mi West 3.5 mph - N/A   Clear
9:53 PM 42.8 °F - 39.2 °F 87% 30.21 in 10.0 mi Calm Calm - N/A   Clear
10:53 PM 43.0 °F - 39.0 °F 86% 30.22 in 10.0 mi Calm Calm - N/A   Clear
11:53 PM 42.1 °F - 39.0 °F 89% 30.22 in 10.0 mi Calm Calm - N/A   Clear